Toledo, OH

12:41 AM EST on December 18, 2017 (GMT -0500)
Toledo Express

Weather History for KTOL - February, 2014

Change the Weather History Date:

Wednesday, February 5, 2014

  Actual Average Record
Temperature  
Mean Temperature 13 °F 26 °F  
Max Temperature 26 °F 34 °F 56 °F (1938)
Min Temperature 0 °F 19 °F -13 °F (1918)
Degree Days  
Heating Degree Days 52 39  
Month to date heating degree days 225 195  
Since 1 July heating degree days 4234 3744  
Cooling Degree Days 0 0  
Month to date cooling degree days 0 0  
Year to date cooling degree days 0 0  
Moisture  
Dew Point 17 °F    
Average Humidity 76    
Maximum Humidity 91    
Minimum Humidity 61    
Precipitation  
Precipitation 0.48 in 0.06 in 1.44 in (2008)
Month to date precipitation 1.50 0.33  
Year to date precipitation 4.79 2.38  
Snow  
Snow 7.20 in 0.40 in - ()
Month to date snowfall 10.9 1.9  
Since 1 July snowfall 62.8 23.0  
Snow Depth 8.00 in    
Sea Level Pressure  
Sea Level Pressure 30.00 in    
Wind  
Wind Speed 12 mph (NNE)    
Max Wind Speed 22 mph    
Max Gust Speed 28 mph    
Visibility 3 miles    
Events Fog , Snow    
T = Trace of Precipitation, MM = Missing Value Source: NWS Daily Summary

Daily Weather History Graph

Daily Weather History Graph

Search for Another Location

Airport or City:

Trip Planner

Search our weather history database for the weather conditions in past years. The results will help you decide how hot, cold, wet, or windy it might be!

Date:

Astronomy

Feb. 05, 2014 Rise Set
Actual Time 7:42 AM EST 5:56 PM EST
Civil Twilight 7:13 AM EST 6:25 PM EST
Nautical Twilight 6:40 AM EST 6:58 PM EST
Astronomical Twilight 6:08 AM EST 7:30 PM EST
Moon 10:51 AM EST (2/5) No Moon Set
Length of Visible Light 11h 11m
Length of Day
10h 13m
Waxing Crescent, 39% of the Moon is Illuminated
Feb 5
Waxing Crescent
Feb 6
First Quarter
Feb 14
Full
Feb 22
Last Quarter
Mar 1
New

Hourly Weather History & Observations

Time (EST) Temp. Windchill Dew Point Humidity Pressure Visibility Wind Dir Wind Speed Gust Speed Precip Events Conditions
12:16 AM 19.4 °F 6.0 °F 17.6 °F 93% 30.06 in 4.0 mi ENE 13.8 mph - 0.01 in Snow Light Snow
12:40 AM 19.4 °F 7.2 °F 17.6 °F 93% 30.06 in 3.0 mi ENE 11.5 mph - 0.01 in Snow Light Snow
12:49 AM 19.4 °F 4.5 °F 17.6 °F 93% 30.03 in 2.0 mi ENE 17.3 mph 23.0 mph 0.01 in Snow Light Snow
12:52 AM 19.9 °F 5.7 °F 17.1 °F 89% 30.06 in 1.8 mi ENE 16.1 mph 23.0 mph 0.02 in Snow Light Snow
1:07 AM 19.4 °F 5.5 °F 17.6 °F 93% 30.02 in 1.8 mi NE 15.0 mph - 0.00 in Snow Light Snow
1:12 AM 19.4 °F 5.0 °F 17.6 °F 93% 29.99 in 2.0 mi ENE 16.1 mph - 0.00 in Snow Light Snow
1:19 AM 19.4 °F 5.5 °F 17.6 °F 93% 29.99 in 2.5 mi ENE 15.0 mph - 0.01 in Snow Light Snow
1:52 AM 19.9 °F 5.2 °F 17.1 °F 89% 30.02 in 2.0 mi NE 17.3 mph - 0.02 in Snow Light Snow
2:10 AM 19.4 °F 4.5 °F 17.6 °F 93% 29.98 in 3.0 mi NE 17.3 mph - 0.00 in Snow Light Snow
2:30 AM 19.4 °F 6.0 °F 17.6 °F 93% 29.99 in 4.0 mi NE 13.8 mph - 0.00 in Snow Light Snow
2:37 AM 19.4 °F 4.5 °F 17.6 °F 93% 29.99 in 4.0 mi NE 17.3 mph 23.0 mph 0.00 in Snow Light Snow
2:52 AM 19.9 °F 7.3 °F 17.1 °F 89% 30.01 in 5.0 mi NE 12.7 mph - 0.00 in Snow Light Snow
3:17 AM 19.4 °F 5.0 °F 17.6 °F 93% 29.94 in 4.0 mi NE 16.1 mph - 0.01 in Snow Light Snow
3:41 AM 19.4 °F 5.0 °F 17.6 °F 93% 29.92 in 4.0 mi NE 16.1 mph - 0.01 in Snow Light Snow
3:52 AM 19.9 °F 5.7 °F 17.1 °F 89% 29.94 in 2.0 mi NE 16.1 mph - 0.01 in Snow Light Snow
4:11 AM 19.4 °F 4.1 °F 17.6 °F 93% 29.88 in 1.8 mi NE 18.4 mph 24.2 mph 0.01 in Snow Light Snow
4:23 AM 19.4 °F 4.5 °F 17.6 °F 93% 29.87 in 1.0 mi NE 17.3 mph 26.5 mph 0.02 in Snow Light Snow
4:39 AM 19.4 °F 5.0 °F 17.6 °F 93% 29.86 in 1.8 mi NE 16.1 mph 23.0 mph 0.03 in Snow Light Snow
4:52 AM 19.9 °F 5.7 °F 17.1 °F 89% 29.87 in 1.8 mi NE 16.1 mph 26.5 mph 0.03 in Snow Light Snow
5:07 AM 19.4 °F 5.5 °F 17.6 °F 93% 29.83 in 2.0 mi NE 15.0 mph 24.2 mph 0.01 in Snow Light Snow
5:14 AM 19.4 °F 4.5 °F 17.6 °F 93% 29.83 in 2.0 mi NE 17.3 mph 24.2 mph 0.01 in Snow Light Snow
5:21 AM 19.4 °F 6.0 °F 17.6 °F 93% 29.84 in 1.8 mi NNE 13.8 mph 23.0 mph 0.01 in Snow Light Snow
5:52 AM 19.9 °F 6.2 °F 17.1 °F 89% 29.86 in 1.2 mi NNE 15.0 mph 21.9 mph 0.04 in Snow Light Snow
6:08 AM 19.4 °F 5.0 °F 17.6 °F 93% 29.80 in 1.0 mi NNE 16.1 mph 23.0 mph 0.01 in Snow Light Snow
6:17 AM 19.4 °F 6.0 °F 17.6 °F 93% 29.82 in 0.8 mi NNE 13.8 mph - 0.02 in Snow Light Snow
6:42 AM 19.4 °F 5.5 °F 17.6 °F 93% 29.83 in 0.5 mi North 15.0 mph - 0.07 in Fog , Snow Snow
6:52 AM 19.9 °F 5.7 °F 18.0 °F 92% 29.86 in 0.5 mi NNE 16.1 mph 24.2 mph 0.09 in Fog , Snow Snow
7:52 AM 19.9 °F 6.2 °F 17.1 °F 89% 29.87 in 0.5 mi NNE 15.0 mph 24.2 mph 0.10 in Fog Light Freezing Fog
8:14 AM 19.4 °F 7.9 °F 17.6 °F 93% 29.85 in 0.2 mi North 10.4 mph - 0.05 in Fog , Snow Snow
8:28 AM 19.4 °F 7.9 °F 17.6 °F 93% 29.86 in 0.5 mi North 10.4 mph - 0.07 in Fog , Snow Snow
8:52 AM 19.9 °F 9.3 °F 18.0 °F 92% 29.90 in 0.8 mi North 9.2 mph - 0.09 in Snow Light Snow
9:02 AM 19.4 °F 7.2 °F 17.6 °F 93% 29.87 in 1.0 mi North 11.5 mph - 0.00 in Snow Light Snow
9:24 AM 19.4 °F 7.2 °F 17.6 °F 93% 29.88 in 0.8 mi North 11.5 mph - 0.02 in Snow Light Snow
9:50 AM 21.2 °F 8.9 °F 17.6 °F 86% 29.90 in 0.8 mi North 12.7 mph - 0.04 in Snow Light Snow
9:52 AM 21.0 °F 9.9 °F 18.0 °F 88% 29.93 in 0.8 mi NNW 10.4 mph - 0.04 in Snow Light Snow
10:15 AM 21.2 °F 6.8 °F 19.4 °F 93% 29.90 in 0.8 mi North 17.3 mph 23.0 mph 0.02 in Snow Light Snow
10:22 AM 21.2 °F 7.3 °F 19.4 °F 93% 29.91 in 1.0 mi North 16.1 mph 23.0 mph 0.02 in Snow Light Snow
10:37 AM 21.2 °F 6.8 °F 17.6 °F 86% 29.92 in 1.8 mi North 17.3 mph 27.6 mph 0.03 in Snow Light Snow
10:45 AM 21.2 °F 7.8 °F 17.6 °F 86% 29.92 in 2.5 mi North 15.0 mph 27.6 mph 0.03 in Snow Light Snow
10:52 AM 21.9 °F 6.9 °F 18.0 °F 85% 29.95 in 3.0 mi North 19.6 mph 25.3 mph 0.03 in Snow Light Snow
11:01 AM 21.2 °F 6.8 °F 19.4 °F 93% 29.92 in 1.8 mi North 17.3 mph - 0.00 in Snow Light Snow
11:09 AM 23.0 °F 10.6 °F 19.4 °F 86% 29.93 in 1.0 mi North 13.8 mph - 0.00 in Snow Light Snow
11:19 AM 23.0 °F 10.1 °F 19.4 °F 86% 29.94 in 1.2 mi North 15.0 mph 23.0 mph 0.00 in Snow Light Snow
11:27 AM 23.0 °F 11.1 °F 19.4 °F 86% 29.95 in 1.8 mi North 12.7 mph 23.0 mph 0.00 in Snow Light Snow
11:34 AM 23.0 °F 10.1 °F 19.4 °F 86% 29.96 in 2.5 mi North 15.0 mph 23.0 mph 0.00 in Snow Light Snow
11:49 AM 23.0 °F 9.6 °F 19.4 °F 86% 29.97 in 1.8 mi North 16.1 mph 21.9 mph 0.00 in Snow Light Snow
11:52 AM 23.0 °F 9.6 °F 19.0 °F 85% 30.01 in 1.8 mi North 16.1 mph - 0.00 in Snow Light Snow
11:55 AM 23.0 °F 9.6 °F 19.4 °F 86% 29.98 in 2.0 mi North 16.1 mph - 0.00 in Snow Light Snow
12:40 PM 24.8 °F 13.4 °F 19.4 °F 80% 29.99 in 3.0 mi North 12.7 mph 24.2 mph 0.01 in Snow Light Snow
12:52 PM 24.1 °F 11.0 °F 19.0 °F 81% 30.03 in 4.0 mi North 16.1 mph 24.2 mph 0.01 in Snow Light Snow
1:00 PM 24.8 °F 11.9 °F 19.4 °F 80% 30.00 in 6.0 mi North 16.1 mph 23.0 mph 0.00 in Snow Light Snow
1:52 PM 25.0 °F 13.6 °F 19.9 °F 81% 30.06 in 3.0 mi North 12.7 mph 19.6 mph 0.00 in Snow Light Snow
2:52 PM 25.0 °F 14.8 °F 19.9 °F 81% 30.10 in 7.0 mi North 10.4 mph - 0.00 in Snow Light Snow
3:06 PM 24.8 °F 12.9 °F 17.6 °F 74% 30.07 in 10.0 mi North 13.8 mph - 0.00 in   Overcast
3:52 PM 24.1 °F 10.6 °F 16.0 °F 71% 30.15 in 10.0 mi North 17.3 mph 24.2 mph 0.00 in   Partly Cloudy
4:52 PM 21.9 °F 10.4 °F 12.9 °F 68% 30.20 in 10.0 mi NNW 11.5 mph 18.4 mph N/A   Mostly Cloudy
5:52 PM 19.9 °F 8.6 °F 12.0 °F 71% 30.25 in 10.0 mi NNW 10.4 mph - N/A   Scattered Clouds
6:52 PM 17.1 °F 6.6 °F 9.0 °F 71% 30.30 in 10.0 mi NNW 8.1 mph - N/A   Partly Cloudy
7:52 PM 17.1 °F 7.6 °F 7.0 °F 65% 30.32 in 10.0 mi NNW 6.9 mph - N/A   Overcast
8:52 PM 15.1 °F 7.7 °F 5.0 °F 64% 30.35 in 10.0 mi North 4.6 mph - N/A   Overcast
9:52 PM 10.0 °F - 3.9 °F 76% 30.38 in 10.0 mi Calm Calm - N/A   Mostly Cloudy
10:52 PM 6.1 °F - 3.0 °F 87% 30.38 in 10.0 mi Calm Calm - N/A   Overcast
11:52 PM -0.0 °F -7.9 °F -0.9 °F 96% 30.39 in 10.0 mi WSW 3.5 mph - N/A   Clear